sat.trackr.live / text

‹ back to catalog

SHIYAN-24C 02

NORAD 58651 · 2023-206B

PAYLOAD ACTIVE UNKNOWN

§ Identity

Operator
Country
PRC
Launch date
2023-12-25
Launch site
SCSLA
Launch vehicle
Mass (kg)
RCS (m²)

External: N2YO · Heavens-Above · Gunter

§ Orbital elements

Epoch: 2026-09-21T13:56:43.243584Z

Period
96.12 min
Inclination
97.7033°
Eccentricity
0.0001626
Mean motion
14.98150636 rev/d
Perigee alt
571.5 km
Apogee alt
573.7 km
Semi-major
6,950.7 km
B*
1.4940e-4
RAAN
227.7166°
Arg perigee
145.2394°
Mean anomaly
214.8935°
Rev number
14,974

§ Raw data

SHIYAN-24C 021 58651U 23206B   26264.58105606  .00001712  00000+0  14940-3 0  99902 58651  97.7033 227.7166 0001626 145.2394 214.8935 14.98150636149740

JSON: /api/v1/satellites/58651 · /tle

For live sub-satellite position, see the globe view (requires WebGL).

§ Visibility from observer

Set your observer location to see the next 7 days of passes ≥ 10°. The values pass through the URL so the page stays shareable.

No JS? Fill the form by hand. The geolocation button needs JavaScript.